Time+07,TemperatureF,Dew PointF,Humidity,Sea Level PressureIn,VisibilityMPH,Wind Direction,Wind SpeedMPH,Gust SpeedMPH,PrecipitationIn,Events,Conditions,WindDirDegrees,DateUTC
12:00 AM,80.6,69.8,70,29.80,5.6,ESE,11.5,-,N/A,,Scattered Clouds,120,2013-04-21 17:00:00
12:30 AM,80.6,69.8,70,29.80,5.6,SE,11.5,-,N/A,,Scattered Clouds,130,2013-04-21 17:30:00
1:00 AM,80.6,69.8,70,29.80,5.0,ESE,12.7,-,N/A,,Unknown,120,2013-04-21 18:00:00
7:00 AM,77.0,71.6,83,29.80,5.6,East,3.5,-,N/A,,Scattered Clouds,80,2013-04-22 00:00:00
7:30 AM,77.0,71.6,83,29.80,5.6,Variable,3.5,-,N/A,,Scattered Clouds,0,2013-04-22 00:30:00
8:00 AM,78.8,71.6,78,29.80,5.6,Variable,1.2,-,N/A,,Scattered Clouds,0,2013-04-22 01:00:00
8:30 AM,80.6,71.6,74,29.83,5.6,Variable,2.3,-,N/A,,Scattered Clouds,0,2013-04-22 01:30:00
9:00 AM,82.4,71.6,70,29.83,5.6,Variable,2.3,-,N/A,,Scattered Clouds,0,2013-04-22 02:00:00
9:30 AM,82.4,73.4,74,29.83,6.2,South,6.9,-,N/A,,Scattered Clouds,180,2013-04-22 02:30:00
10:00 AM,86.0,73.4,66,29.83,6.2,Variable,3.5,-,N/A,,Scattered Clouds,0,2013-04-22 03:00:00
10:30 AM,86.0,73.4,66,29.83,6.2,Variable,2.3,-,N/A,,Scattered Clouds,0,2013-04-22 03:30:00
11:00 AM,86.0,73.4,66,29.83,6.2,East,4.6,-,N/A,,Scattered Clouds,100,2013-04-22 04:00:00
11:30 AM,89.6,71.6,55,29.80,6.2,ESE,6.9,-,N/A,,Scattered Clouds,110,2013-04-22 04:30:00
12:00 PM,91.4,71.6,52,29.80,6.2,Variable,3.5,-,N/A,,Scattered Clouds,0,2013-04-22 05:00:00
12:30 PM,91.4,71.6,52,29.77,6.2,NE,5.8,-,N/A,,Scattered Clouds,40,2013-04-22 05:30:00
1:00 PM,93.2,71.6,49,29.77,6.2,East,5.8,-,N/A,,Scattered Clouds,90,2013-04-22 06:00:00
1:30 PM,93.2,71.6,49,29.74,6.2,ENE,5.8,-,N/A,,Scattered Clouds,60,2013-04-22 06:30:00
2:00 PM,91.4,73.4,55,29.74,6.2,ENE,9.2,-,N/A,,Scattered Clouds,60,2013-04-22 07:00:00
2:30 PM,95.0,73.4,49,29.71,6.2,Variable,2.3,-,N/A,,Scattered Clouds,0,2013-04-22 07:30:00
3:00 PM,95.0,69.8,44,29.71,6.2,NNW,5.8,-,N/A,,Scattered Clouds,330,2013-04-22 08:00:00
3:30 PM,95.0,69.8,44,29.68,6.2,Variable,3.5,-,N/A,,Scattered Clouds,0,2013-04-22 08:30:00
4:00 PM,95.0,68.0,41,29.68,6.2,SE,8.1,-,N/A,,Scattered Clouds,130,2013-04-22 09:00:00
4:30 PM,96.8,66.2,37,29.65,6.2,East,4.6,-,N/A,,Scattered Clouds,90,2013-04-22 09:30:00
5:00 PM,95.0,68.0,41,29.65,6.2,ENE,4.6,-,N/A,,Scattered Clouds,70,2013-04-22 10:00:00
5:30 PM,93.2,68.0,44,29.68,6.2,NNE,6.9,-,N/A,,Scattered Clouds,30,2013-04-22 10:30:00
6:00 PM,93.2,69.8,46,29.71,6.2,NE,5.8,-,N/A,,Scattered Clouds,50,2013-04-22 11:00:00
6:30 PM,91.4,69.8,49,29.74,5.6,ENE,4.6,-,N/A,,Scattered Clouds,60,2013-04-22 11:30:00
7:00 PM,91.4,69.8,49,29.74,5.6,NE,4.6,-,N/A,,Scattered Clouds,50,2013-04-22 12:00:00
7:30 PM,89.6,69.8,52,29.74,5.6,East,8.1,-,N/A,,Scattered Clouds,80,2013-04-22 12:30:00
8:00 PM,89.6,69.8,52,29.74,5.6,ENE,5.8,-,N/A,,Scattered Clouds,70,2013-04-22 13:00:00
8:30 PM,87.8,69.8,55,29.77,5.6,ESE,4.6,-,N/A,,Scattered Clouds,110,2013-04-22 13:30:00
9:00 PM,87.8,69.8,55,29.77,5.6,ESE,3.5,-,N/A,,Scattered Clouds,110,2013-04-22 14:00:00
9:30 PM,86.0,71.6,62,29.80,5.6,ESE,4.6,-,N/A,,Scattered Clouds,120,2013-04-22 14:30:00
10:00 PM,86.0,71.6,62,29.80,5.6,SE,4.6,-,N/A,,Scattered Clouds,130,2013-04-22 15:00:00
10:30 PM,86.0,73.4,66,29.83,5.6,SSE,11.5,-,N/A,,Scattered Clouds,150,2013-04-22 15:30:00
11:00 PM,84.2,75.2,74,29.83,5.6,South,8.1,-,N/A,,Scattered Clouds,170,2013-04-22 16:00:00
11:30 PM,84.2,75.2,74,29.83,5.6,South,8.1,-,N/A,,Scattered Clouds,170,2013-04-22 16:30:00